Current weather by "City, St" or "zip code"  
 

Current Conditions: Sarasota / Bradenton, Sarasota-Bradenton International Airport, FL

Fair


75.0 F

Last Updated on May 21 2022, 3:53 am EDT
Humidity: 76%
Wind Speed: SE 10.4 mph
Barometer 30.08 in
Dewpoint: 66.9 F
Visibility: 10.00 mi
Precip: --
Heat Index: NA
Wind Chill: NA
Current conditions at:

Sarasota / Bradenton, Sarasota-Bradenton International Airport, FL (KSRQ)

Lat: 27.40139 Lon: 82.55861

Local Radar Image active severe weather and emergency alerts image image weather storm and storm spotter reports image weather observation monitoring service image
Local
Radar
Active
Alerts
Storm Reports Obs
Monitoring

Sign-up For Email & Text Message Weather Alert Notification Services



Advertise Here

Observation History for Sarasota / Bradenton, Sarasota-Bradenton International Airport, FL


Time Wind
(mph)
Vis
(mi)
Weather Precip (in) Temperature (F) Relative
Humidity
Wind
Chill
(F)
Heat
Index
(F)
Pressure
Air Dwpt altimeter
(in)
sea level
(mb)
Rmks
3:53 am EDT SE 10.4 10.00 Fair -- 75.0 66.9 76% NA NA 30.08 1018.4
2:53 am EDT SE 13.8 10.00 Overcast -- 75.0 66.9 76% NA NA 30.08 1018.4
1:53 am EDT E 9.2 10.00 Fair -- 75.0 66.9 76% NA NA 30.08 1018.4
12:53 am EDT SE 12.7 10.00 Fair Trace 75.0 66.9 76% NA NA 30.08 1018.4
11:53 pm EDT SE 13.8 10.00 Light Rain Trace 76.0 69.1 79% NA NA 30.07 1018.3
10:53 pm EDT SE 17.3 G 25.3 10.00 Mostly Cloudy -- 77.0 69.1 77% NA NA 30.09 1018.9
9:53 pm EDT SE 16.1 G 24.2 10.00 Partly Cloudy -- 76.0 70.0 82% NA NA 30.08 1018.5
8:53 pm EDT SE 18.4 10.00 Mostly Cloudy -- 78.0 70.0 76% NA NA 30.04 1017.3
7:53 pm EDT S 12.7 10.00 Mostly Cloudy -- 84.0 72.0 67% NA 90 30.02 1016.6
5:53 pm EDT S 9.2 10.00 Fair -- 84.0 73.0 70% NA 90 29.99 1015.6
4:53 pm EDT S 13.8 10.00 Fair -- 85.0 73.0 68% NA 92 29.98 1015.1
3:53 pm EDT S 17.3 G 23.0 10.00 Fair -- 87.0 72.0 61% NA 93 29.99 1015.6
2:53 pm EDT S 12.7 G 25.3 10.00 Fair Trace 86.0 73.9 67% NA 94 30.02 1016.4
11:53 am EDT S 12.7 G 19.6 10.00 A Few Clouds -- 86.0 73.9 67% NA 94 30.01 1016.2
10:53 am EDT SE 8.1 10.00 Fair Trace 76.0 72.0 88% NA NA 30.03 1016.6
9:53 am EDT E 8.1 10.00 Mostly Cloudy -- 74.0 71.1 91% NA NA 30.04 1017.0
7:53 am EDT SE 8.1 10.00 Light Rain 00.01 75.0 71.1 88% NA NA 30.00 1015.7
5:53 am EDT SE 4.6 10.00 Mostly Cloudy -- 73.0 71.1 94% NA NA 29.95 1013.9
4:53 am EDT N 0.0 10.00 Fair -- 74.0 71.1 91% NA NA 29.93 1013.3

Regional Weather Observation


St. Petersburg/Clearwater Airport, FL (KPIE)

Mostly Cloudy
76.0 F

Clearwater Air Park, FL (KCLW)

Mostly Cloudy
77.0 F

Macdill Air Force Base, Fl., FL (KMCF)

Mostly Cloudy
75.0 F

Sarasota / Bradenton, Sarasota-Bradenton International Airport, FL (KSRQ)

Fair
75.0 F

Tampa, Tampa International Airport, FL (KTPA)

A Few Clouds
78.0 F

Tampa, Peter O Knight Airport, FL (KTPF)

Mostly Cloudy
NULL F

Advertise Here


Advertise Here